User: anonymous
Location: Mactaquac Provincial Park
(45.9573°N, 66.8897°W)
Time: 02:32:03
(UTC-03:00)
Language:

Cosmos 1766 - Orbit

View from above orbital plane
View from above orbital plane
View from above satellite
View from above satellite

Ground track
Ground track

The orbit data is extracted from the following two-line orbital elements,

1 16881U 86055A   14234.70731017  .00000886  00000-0  59051-4 0  9398
2 16881 082.5114 308.4206 0011353 358.8515 001.2684 15.05810211526219
Epoch (UTC): 22 August 2014 16:58:31
Eccentricity: 0.0011353
inclination: 82.5114°
perigee height: 541 km
apogee height: 557 km
right ascension of ascending node: 308.4206°
argument of perigee: 358.8515°
revolutions per day: 15.05810211
mean anomaly at epoch: 1.2684°
orbit number at epoch: 52621

The dashed part of the orbit path shows where the satellite is in the earth's shadow,  

DLR